Mason, MI

1:14 PM EDT on April 24, 2017 (GMT -0400)
Mason Jewett

Weather History for KTEW - December, 2011

Change the Weather History Date:

Sunday, December 11, 2011

  Actual Average (KLAN) Record (KLAN)
Temperature  
Mean Temperature 27 °F -  
Max Temperature 35 °F 34 °F 62 °F (1949)
Min Temperature 19 °F 21 °F -16 °F (1868)
Degree Days  
Heating Degree Days 38    
Moisture  
Dew Point 20 °F    
Average Humidity 76    
Maximum Humidity 86    
Minimum Humidity 68    
Precipitation  
Precipitation 0.00 in - - ()
Sea Level Pressure  
Sea Level Pressure 30.41 in    
Wind  
Wind Speed 4 mph (SSW)    
Max Wind Speed 10 mph    
Max Gust Speed 20 mph    
Visibility 10 miles    
Events      
Averages and records for this station are not official NWS values.
T = Trace of Precipitation, MM = Missing Value Source: NWS Daily Summary

Daily Weather History Graph

Daily Weather History Graph

Search for Another Location

Airport or City:

Trip Planner

Search our weather history database for the weather conditions in past years. The results will help you decide how hot, cold, wet, or windy it might be!

Date:

Astronomy

Dec. 11, 2011 Rise Set
Actual Time 7:57 AM EST 5:04 PM EST
Civil Twilight 7:25 AM EST 5:36 PM EST
Nautical Twilight 6:49 AM EST 6:11 PM EST
Astronomical Twilight 6:15 AM EST 6:46 PM EST
Moon 6:13 PM EST (12/11) 8:45 AM EST (12/11)
Length of Visible Light 10h 11m
Length of Day
9h 07m
Full, 99% of the Moon is Illuminated
Dec 11
Full
Dec 17
Last Quarter
Dec 24
New
Jan 1
First Quarter
Jan 9
Full

Hourly Weather History & Observations

Time (EST) Temp. Windchill Dew Point Humidity Pressure Visibility Wind Dir Wind Speed Gust Speed Precip Events Conditions
12:13 AM 21.2 °F 13.6 °F 12.2 °F 68% 30.42 in 10.0 mi SSW 5.8 mph - N/A   Overcast
12:32 AM 19.4 °F 11.5 °F 12.2 °F 74% 30.42 in 10.0 mi SSW 5.8 mph - N/A   Scattered Clouds
12:53 AM 19.4 °F 11.5 °F 12.2 °F 74% 30.42 in 10.0 mi SW 5.8 mph - N/A   Clear
1:13 AM 19.4 °F 12.8 °F 12.2 °F 74% 30.41 in 10.0 mi SSW 4.6 mph - N/A   Clear
1:32 AM 19.4 °F 12.8 °F 12.2 °F 74% 30.41 in 10.0 mi SW 4.6 mph - N/A   Clear
1:53 AM 19.4 °F 11.5 °F 12.2 °F 74% 30.41 in 10.0 mi SW 5.8 mph - N/A   Clear
2:13 AM 19.4 °F 12.8 °F 12.2 °F 74% 30.41 in 10.0 mi SSW 4.6 mph - N/A   Clear
2:32 AM 19.4 °F 11.5 °F 12.2 °F 74% 30.41 in 10.0 mi SW 5.8 mph - N/A   Clear
2:53 AM 19.4 °F 10.4 °F 12.2 °F 74% 30.43 in 10.0 mi SW 6.9 mph - N/A   Mostly Cloudy
3:13 AM 19.4 °F 11.5 °F 12.2 °F 74% 30.43 in 10.0 mi SW 5.8 mph - N/A   Overcast
3:32 AM 21.2 °F 13.6 °F 12.2 °F 68% 30.43 in 10.0 mi SW 5.8 mph - N/A   Overcast
3:53 AM 21.2 °F 16.4 °F 12.2 °F 68% 30.42 in 10.0 mi SW 3.5 mph - N/A   Overcast
4:13 AM 19.4 °F - 14.0 °F 80% 30.41 in 10.0 mi Calm Calm - N/A   Overcast
4:32 AM 19.4 °F 14.3 °F 14.0 °F 80% 30.41 in 10.0 mi SSW 3.5 mph - N/A   Scattered Clouds
4:53 AM 19.4 °F 14.3 °F 14.0 °F 80% 30.42 in 10.0 mi SSW 3.5 mph - N/A   Clear
5:13 AM 21.2 °F 14.9 °F 14.0 °F 74% 30.41 in 10.0 mi SSW 4.6 mph - N/A   Clear
5:52 AM 21.2 °F - 15.8 °F 80% 30.42 in 10.0 mi Calm Calm - N/A   Clear
6:12 AM 21.2 °F - 15.8 °F 80% 30.43 in 10.0 mi Calm Calm - N/A   Clear
6:33 AM 21.2 °F - 17.6 °F 86% 30.43 in 10.0 mi Calm Calm - N/A   Clear
6:53 AM 19.4 °F - 15.8 °F 86% 30.43 in 10.0 mi Calm Calm - N/A   Clear
7:12 AM 19.4 °F - 15.8 °F 86% 30.43 in 10.0 mi Calm Calm - N/A   Clear
7:33 AM 21.2 °F 16.4 °F 17.6 °F 86% 30.43 in 10.0 mi South 3.5 mph - N/A   Clear
7:52 AM 21.2 °F 16.4 °F 17.6 °F 86% 30.43 in 10.0 mi South 3.5 mph - N/A   Clear
8:12 AM 21.2 °F - 17.6 °F 86% 30.43 in 10.0 mi Calm Calm - N/A   Clear
8:33 AM 21.2 °F - 17.6 °F 86% 30.44 in 10.0 mi Calm Calm - N/A   Clear
8:52 AM 23.0 °F 17.0 °F 19.4 °F 86% 30.44 in 10.0 mi SSW 4.6 mph - N/A   Clear
9:12 AM 24.8 °F 19.1 °F 19.4 °F 80% 30.45 in 10.0 mi South 4.6 mph - N/A   Clear
9:33 AM 26.6 °F 22.6 °F 19.4 °F 74% 30.45 in 10.0 mi SSW 3.5 mph - N/A   Clear
10:12 AM 28.4 °F 24.6 °F 21.2 °F 74% 30.45 in 10.0 mi SSW 3.5 mph - N/A   Clear
10:33 AM 30.2 °F 24.3 °F 21.2 °F 69% 30.45 in 10.0 mi SSW 5.8 mph - N/A   Clear
10:52 AM 32.0 °F 28.7 °F 23.0 °F 69% 30.45 in 10.0 mi SSW 3.5 mph - N/A   Clear
11:12 AM 32.0 °F 26.4 °F 23.0 °F 69% 30.45 in 10.0 mi SSW 5.8 mph - N/A   Clear
11:33 AM 32.0 °F 27.5 °F 23.0 °F 69% 30.44 in 10.0 mi SSW 4.6 mph - N/A   Clear
12:12 PM 33.8 °F 27.0 °F 24.8 °F 70% 30.43 in 10.0 mi South 8.1 mph 16.1 mph N/A   Clear
12:33 PM 33.8 °F 29.6 °F 24.8 °F 70% 30.42 in 10.0 mi SSW 4.6 mph 19.6 mph N/A   Clear
12:52 PM 33.8 °F 25.8 °F 24.8 °F 70% 30.41 in 10.0 mi SSW 10.4 mph 17.3 mph N/A   Clear
1:13 PM 35.6 °F 30.7 °F 26.6 °F 70% 30.41 in 10.0 mi SW 5.8 mph - N/A   Clear
1:33 PM 35.6 °F 31.7 °F 26.6 °F 70% 30.41 in 10.0 mi SSW 4.6 mph - N/A   Clear
1:52 PM 35.6 °F 30.7 °F 26.6 °F 70% 30.40 in 10.0 mi SSW 5.8 mph - N/A   Clear
2:13 PM 35.6 °F 29.9 °F 26.6 °F 70% 30.40 in 10.0 mi SSW 6.9 mph - N/A   Clear
2:33 PM 35.6 °F 30.7 °F 26.6 °F 70% 30.39 in 10.0 mi South 5.8 mph - N/A   Clear
2:52 PM 35.6 °F 31.7 °F 26.6 °F 70% 30.39 in 10.0 mi SSW 4.6 mph - N/A   Clear
3:13 PM 35.6 °F 31.7 °F 26.6 °F 70% 30.39 in 10.0 mi South 4.6 mph - N/A   Clear
3:33 PM 35.6 °F 30.7 °F 26.6 °F 70% 30.38 in 10.0 mi SSW 5.8 mph - N/A   Clear
3:52 PM 35.6 °F 32.8 °F 26.6 °F 70% 30.39 in 10.0 mi SSW 3.5 mph - N/A   Clear
4:13 PM 35.6 °F 31.7 °F 26.6 °F 70% 30.38 in 10.0 mi SSW 4.6 mph - N/A   Clear
4:33 PM 33.8 °F 27.7 °F 26.6 °F 75% 30.38 in 10.0 mi South 6.9 mph - N/A   Clear
4:52 PM 33.8 °F 30.8 °F 26.6 °F 75% 30.38 in 10.0 mi South 3.5 mph - N/A   Clear
5:13 PM 32.0 °F 27.5 °F 26.6 °F 80% 30.38 in 10.0 mi South 4.6 mph - N/A   Clear
5:33 PM 32.0 °F 28.7 °F 26.6 °F 80% 30.38 in 10.0 mi South 3.5 mph - N/A   Clear
5:52 PM 32.0 °F 28.7 °F 26.6 °F 80% 30.38 in 10.0 mi South 3.5 mph - N/A   Clear
6:13 PM 32.0 °F 28.7 °F 26.6 °F 80% 30.38 in 10.0 mi South 3.5 mph - N/A   Clear
6:33 PM 32.0 °F 28.7 °F 24.8 °F 75% 30.39 in 10.0 mi South 3.5 mph - N/A   Clear
6:52 PM 32.0 °F - 24.8 °F 75% 30.39 in 10.0 mi Calm Calm - N/A   Clear
7:13 PM 32.0 °F 27.5 °F 24.8 °F 75% 30.39 in 10.0 mi South 4.6 mph - N/A   Clear
7:32 PM 30.2 °F 26.7 °F 24.8 °F 80% 30.39 in 10.0 mi South 3.5 mph - N/A   Clear
7:52 PM 30.2 °F 24.3 °F 24.8 °F 80% 30.39 in 10.0 mi South 5.8 mph - N/A   Clear
8:13 PM 30.2 °F 26.7 °F 24.8 °F 80% 30.39 in 10.0 mi South 3.5 mph - N/A   Clear
8:33 PM 30.2 °F 25.4 °F 24.8 °F 80% 30.40 in 10.0 mi South 4.6 mph - N/A   Clear
8:52 PM 30.2 °F 25.4 °F 23.0 °F 75% 30.40 in 10.0 mi South 4.6 mph - N/A   Clear
9:52 PM 30.2 °F 26.7 °F 23.0 °F 75% 30.40 in 10.0 mi South 3.5 mph - N/A   Clear
10:13 PM 30.2 °F - 23.0 °F 75% 30.40 in 10.0 mi Calm Calm - N/A   Clear
10:33 PM 28.4 °F 24.6 °F 23.0 °F 80% 30.40 in 10.0 mi South 3.5 mph - N/A   Clear
10:52 PM 28.4 °F - 23.0 °F 80% 30.40 in 10.0 mi Calm Calm - N/A   Clear
11:13 PM 28.4 °F - 23.0 °F 80% 30.40 in 10.0 mi Calm Calm - N/A   Clear